{"data":{"norad_id":69226,"intl_designator":"2026-115R","name":"STARLINK-37736","alt_names":[],"object_type":"PAYLOAD","status":"ACTIVE","operator":null,"country":"US","launch_date":"2026-05-26","launch_site_code":"AFWTR","launch_vehicle":null,"mission":null,"orbit_class":"UNKNOWN","rcs_meters":null,"size_class":null,"mass_kg":null,"dimensions":null,"purposes":["comms"],"wikipedia_slug":null,"has_3d_model":false,"image_url":null,"decayed_at":null,"tle_current":{"epoch":"2026-09-19T23:43:35.586048Z","epoch_age_seconds":71212,"freshness":"FRESH","line1":"1 69226U 26115R   26262.98860632  .00022230  00000+0  68839-3 0  9995","line2":"2 69226  97.2839 279.1161 0002256  91.5568 268.5933 15.33466082 19218","mean_motion":15.33466082,"eccentricity":0.0002256,"inclination_deg":97.2839,"raan_deg":279.1161,"arg_perigee_deg":91.5568,"mean_anomaly_deg":268.5933,"bstar":0.00068839,"rev_number":1921,"period_min":93.904913639948,"perigee_km":463.93652990048,"apogee_km":467.02437009392,"semimajor_km":6843.6174499972,"source":"CELESTRAK","updated_at":"2026-09-20T09:00:44.104873Z"}}}